[[{"header":{"parameterUnit":"m.s-1","parameterCategory":1,"la1":30.2991,"la2":30.254,"lo1":-89.0895,"lo2":-89.0444,"dy":0.0017,"dx":0.0017,"nx":28,"ny":28,"refTime":"2024-03-28T03:00:00:Z","depth":0,"parameterNumber":2,"parameterNumberName":"U-component_of_WINDS"},"data":[0,0,0,0,0,0,0,0,0,0,0,0,0,0,0,0,0,0,0,0,0,0,0,0,0,0,0,0,0,0,0,0,0,0,0,0,0,0,0,0,0,0,0,0,0,0,0,0,0,0,0,0,0,0,0,0,0,0,1.7318,1.7318,0,1.7343,1.7343,1.7343,1.7328,1.7327,1.7326,1.7326,1.7349,1.7351,1.7352,0,0,0,0,0,0,0,0,0,0,0,0,0,1.7257,1.7258,1.7318,1.7318,1.7319,1.7343,1.7343,1.7343,1.7328,1.7327,1.7326,1.7325,1.7349,1.7351,1.7352,0,0,0,0,0,0,0,0,0,0,0,0,0,1.7283,1.7259,1.7318,1.7314,1.7314,1.7343,1.7343,1.7344,1.7328,1.7327,1.7326,1.7325,1.7348,1.735,1.7352,1.7386,0,0,1.7358,1.7359,0,0,0,0,0,0,0,0,1.7281,1.7285,1.7314,1.7314,1.7314,1.7331,1.733,1.7358,1.7328,1.7323,1.7326,1.7324,1.7344,1.7346,1.7353,1.7387,1.7388,1.7359,1.736,1.7361,1.7361,0,0,0,0,0,0,0,1.728,1.7284,1.7328,1.7315,1.7315,1.7311,1.7313,1.7335,1.7339,1.7323,1.7322,1.7325,1.7344,1.7351,1.7354,1.7389,1.7358,1.736,1.7361,1.7362,1.7453,1.7454,0,0,0,0,0,0,1.7278,1.7282,1.7327,1.7329,1.7295,1.7313,1.7315,1.7327,1.7339,1.734,1.7326,1.7324,1.7349,1.7351,1.7355,1.7395,1.7361,1.7362,1.7364,1.7451,1.7453,1.7454,0,0,0,0,0,0,1.7277,1.7282,1.7326,1.7305,1.7311,1.7315,1.7328,1.7328,1.7335,1.7341,1.7342,1.7333,1.7348,1.7352,1.7379,1.7396,1.7363,1.7365,1.745,1.7452,1.7454,1.7477,0,0,0,0,0,0,1.7275,1.7282,1.7295,1.7306,1.7312,1.735,1.7329,1.7329,1.7339,1.7337,1.7348,1.7349,1.7347,1.7376,1.7381,1.7398,1.7367,1.7448,1.7451,1.7453,1.7474,1.7479,1.7483,0,0,0,0,0,1.7273,1.73,1.7296,1.7301,1.7328,1.7351,1.7354,1.7353,1.734,1.7353,1.7357,1.7348,1.7394,1.7379,1.7384,1.7402,1.7447,1.745,1.7453,1.7472,1.7478,1.7483,0,0,0,0,0,0,1.729,1.7301,1.7297,1.7328,1.7339,1.7348,1.7364,1.7359,1.7373,1.737,1.7367,1.737,1.7398,1.7403,1.7386,1.7436,1.7418,1.7422,1.7432,1.7437,1.7441,1.7439,1.7368,0,0,0,0,0,1.7298,1.7316,1.7325,1.7351,1.7357,1.736,1.737,1.7368,1.7379,1.7383,1.7389,1.74,1.7416,1.7427,1.7443,1.7476,1.7478,1.7491,1.7495,1.7499,1.7502,1.752,1.7525,1.7463,1.7463,1.7463,0,0,1.7313,1.7322,1.7333,1.7355,1.7363,1.7382,1.7364,1.7384,1.7398,1.7386,1.7412,1.7417,1.7428,1.7459,1.7472,1.7463,1.752,1.7502,1.7505,1.7506,1.7523,1.7529,1.7534,1.7465,1.7465,1.7464,0,0,1.7351,1.7359,1.7383,1.7392,1.7404,1.7406,1.7412,1.7423,1.7426,1.7452,1.7444,1.746,1.7489,1.7498,1.7506,1.7549,1.7541,1.7554,1.7576,1.7594,1.7598,1.7603,1.7618,1.7623,1.7557,1.7557,1.7557,0,1.7368,1.7396,1.7395,1.7416,1.7426,1.7418,1.7441,1.745,1.7467,1.7474,1.7464,1.7501,1.7508,1.754,1.7551,1.7558,1.7564,1.7552,1.7598,1.7602,1.7606,1.762,1.7626,1.7559,1.7558,1.7558,1.7558,0,1.7417,1.7436,1.7454,1.7471,1.7483,1.7506,1.7508,1.752,1.7518,1.7521,1.7548,1.7556,1.7574,1.7582,1.7579,1.7614,1.7608,1.7598,1.758,1.7614,1.7627,1.7632,1.7561,1.756,1.756,1.7559,0,0,1.7464,1.7482,1.7488,1.7497,1.7511,1.7526,1.7548,1.7566,1.7576,1.7589,1.7607,1.7633,1.7624,1.7633,1.7632,1.7648,1.7681,1.7636,1.7636,1.7643,1.772,1.7726,1.7732,1.7676,1.7677,1.7678,1.7718,0,1.7502,1.7541,1.7542,1.7577,1.7595,1.7588,1.7607,1.7618,1.7622,1.7638,1.7642,1.766,1.7648,1.7653,1.7669,1.7673,1.7696,1.7671,1.7693,1.7693,1.7689,1.7739,1.7746,1.7783,1.7724,1.7724,1.7725,0,1.7551,1.7566,1.7604,1.7617,1.7624,1.7641,1.7658,1.7673,1.7686,1.7688,1.7699,1.7696,1.7718,1.7701,1.7732,1.7715,1.7724,1.7728,1.7729,1.773,1.771,1.7741,1.7795,1.7801,1.7733,1.7733,1.7732,0,1.7582,1.7611,1.7638,1.7645,1.766,1.7673,1.768,1.7691,1.7702,1.7717,1.7724,1.7741,1.775,1.7763,1.7764,1.7752,1.7796,1.7778,1.7797,1.7797,1.7806,1.7805,1.7862,1.7814,1.7814,1.7813,1.7813,0,1.7623,1.7646,1.7652,1.7668,1.7694,1.7694,1.772,1.7726,1.7736,1.7753,1.7749,1.7765,1.7766,1.7783,1.7784,1.7809,1.7814,1.7815,1.7815,1.7815,1.7815,1.782,1.7818,1.7815,1.7815,1.7814,1.7814,0,1.7661,1.7665,1.7694,1.7706,1.771,1.7729,1.7739,1.7755,1.7759,1.7781,1.7786,1.7792,1.7812,1.7815,1.7837,1.7838,1.7869,1.7866,1.7865,1.7864,1.7883,1.7881,1.7944,1.7952,1.7899,1.79,1.79,0,1.7687,1.7704,1.7719,1.7731,1.7739,1.7757,1.7768,1.777,1.7782,1.7799,1.7812,1.7831,1.7847,1.7878,1.7885,1.7902,1.79,1.7921,1.7902,1.7902,1.7899,1.7898,1.7899,1.7924,1.7924,1.7925,1.7925,0,1.7732,1.7733,1.775,1.7768,1.7782,1.7796,1.7809,1.7819,1.7823,1.7837,1.7857,1.7869,1.7893,1.7912,1.7929,1.7936,1.7931,1.7931,1.7937,1.7936,1.7934,1.7935,1.7873,1.7929,1.7929,1.7929,1.7928,1.7928,1.7764,1.7779,1.7793,1.7812,1.7822,1.7835,1.785,1.7857,1.7874,1.7894,1.7894,1.7916,1.7929,1.7952,1.7961,1.7978,1.7971,1.7979,1.7981,1.7982,1.7984,1.7933,1.7981,1.7981,1.7981,1.7981,1.7981,0,1.7808,1.7817,1.7834,1.7854,1.7869,1.7864,1.7879,1.7892,1.7911,1.7924,1.794,1.7963,1.7982,1.7991,1.8009,1.8022,1.802,1.8026,1.8025,1.8027,1.7989,1.7983,1.8027,1.8027,1.8027,1.8027,1.8027,1.8027,1.7833,1.7859,1.7863,1.7894,1.7903,1.7925,1.7933,1.7945,1.7956,1.7982,1.7998,1.8004,1.8015,1.8035,1.8052,1.8054,1.8061,1.8068,1.8069,1.8034,1.8029,1.8025,1.8018,1.807,1.807,1.8105,1.8105,1.8106]},{"header":{"parameterUnit":"m.s-1","parameterCategory":1,"la1":30.2991,"la2":30.254,"lo1":-89.0895,"lo2":-89.0444,"dy":0.0017,"dx":0.0017,"nx":28,"ny":28,"refTime":"2024-03-28T03:00:00:Z","depth":0,"parameterNumber":3,"parameterNumberName":"V-component_of_WINDS"},"data":[0,0,0,0,0,0,0,0,0,0,0,0,0,0,0,0,0,0,0,0,0,0,0,0,0,0,0,0,0,0,0,0,0,0,0,0,0,0,0,0,0,0,0,0,0,0,0,0,0,0,0,0,0,0,0,0,0,0,-6.0399,-6.0401,0,-6.0556,-6.0558,-6.0559,-6.0496,-6.0493,-6.0489,-6.0486,-6.0641,-6.0649,-6.0656,0,0,0,0,0,0,0,0,0,0,0,0,0,-6.0041,-6.0048,-6.0399,-6.0401,-6.0403,-6.0555,-6.0558,-6.056,-6.0497,-6.0493,-6.0488,-6.0484,-6.0639,-6.0648,-6.0657,0,0,0,0,0,0,0,0,0,0,0,0,0,-6.0197,-6.0051,-6.0398,-6.039,-6.0391,-6.0555,-6.0558,-6.056,-6.0498,-6.0493,-6.0487,-6.0482,-6.0636,-6.0647,-6.0658,-6.0839,0,0,-6.0693,-6.0698,0,0,0,0,0,0,0,0,-6.0188,-6.021,-6.0389,-6.0391,-6.0392,-6.0501,-6.0489,-6.0653,-6.0499,-6.0457,-6.0486,-6.0479,-6.0599,-6.0613,-6.0654,-6.0846,-6.0853,-6.0694,-6.0701,-6.0706,-6.0709,0,0,0,0,0,0,0,-6.0178,-6.0203,-6.0461,-6.0392,-6.0394,-6.0377,-6.0393,-6.052,-6.0557,-6.046,-6.0456,-6.0476,-6.0598,-6.0644,-6.0657,-6.0855,-6.0694,-6.0704,-6.0711,-6.0715,-6.1204,-6.121,0,0,0,0,0,0,-6.0167,-6.0195,-6.0456,-6.0465,-6.0275,-6.0388,-6.0406,-6.0472,-6.0555,-6.0563,-6.0481,-6.0472,-6.0627,-6.0644,-6.0663,-6.0881,-6.0706,-6.0716,-6.0723,-6.1198,-6.1205,-6.1212,0,0,0,0,0,0,-6.016,-6.0191,-6.0449,-6.0329,-6.0361,-6.04,-6.0474,-6.0478,-6.0522,-6.0571,-6.0576,-6.052,-6.0623,-6.0647,-6.0796,-6.0885,-6.0721,-6.0732,-6.119,-6.12,-6.1208,-6.1318,0,0,0,0,0,0,-6.015,-6.0189,-6.0258,-6.0331,-6.0367,-6.0582,-6.048,-6.0485,-6.0543,-6.0534,-6.0609,-6.0616,-6.0621,-6.078,-6.0807,-6.0898,-6.0741,-6.1183,-6.1195,-6.1206,-6.1306,-6.133,-6.1349,0,0,0,0,0,-6.0137,-6.0282,-6.0262,-6.0294,-6.0456,-6.0587,-6.0607,-6.0611,-6.055,-6.062,-6.0651,-6.0614,-6.0871,-6.0795,-6.0826,-6.0922,-6.1177,-6.1191,-6.1205,-6.1297,-6.1325,-6.1349,0,0,0,0,0,0,-6.0216,-6.0291,-6.027,-6.0443,-6.0509,-6.0576,-6.0664,-6.0641,-6.0724,-6.0712,-6.0711,-6.0729,-6.0884,-6.0917,-6.0831,-6.1101,-6.1015,-6.1035,-6.1074,-6.1101,-6.1122,-6.1111,-6.075,0,0,0,0,0,-6.0254,-6.0356,-6.0415,-6.0561,-6.0596,-6.0625,-6.0682,-6.0679,-6.0747,-6.0775,-6.0816,-6.0883,-6.0978,-6.1041,-6.1132,-6.1311,-6.1326,-6.1391,-6.1413,-6.143,-6.1448,-6.1547,-6.1577,-6.1257,-6.1257,-6.1257,0,0,-6.0332,-6.0386,-6.045,-6.0579,-6.063,-6.0734,-6.0649,-6.0762,-6.084,-6.0791,-6.0936,-6.0969,-6.1043,-6.1208,-6.1283,-6.1241,-6.154,-6.1448,-6.1462,-6.147,-6.1564,-6.1594,-6.1621,-6.1267,-6.1265,-6.1264,0,0,-6.053,-6.058,-6.0708,-6.0762,-6.0841,-6.086,-6.0891,-6.0962,-6.0983,-6.1129,-6.1095,-6.1186,-6.135,-6.1405,-6.1455,-6.1674,-6.1643,-6.1703,-6.1816,-6.1912,-6.1937,-6.196,-6.2039,-6.2068,-6.1721,-6.1721,-6.1722,0,-6.0617,-6.0775,-6.0777,-6.0895,-6.0953,-6.0915,-6.1045,-6.1096,-6.1201,-6.1241,-6.1193,-6.14,-6.1447,-6.1626,-6.168,-6.172,-6.1755,-6.1695,-6.1934,-6.1956,-6.1977,-6.2053,-6.2083,-6.1728,-6.1728,-6.1727,-6.1726,0,-6.0879,-6.0988,-6.1082,-6.1187,-6.1255,-6.1378,-6.1398,-6.1467,-6.1459,-6.1482,-6.1631,-6.1686,-6.1788,-6.183,-6.1822,-6.2008,-6.198,-6.1933,-6.1846,-6.2015,-6.2086,-6.2115,-6.1738,-6.1736,-6.1734,-6.1732,0,0,-6.1129,-6.1235,-6.127,-6.1317,-6.1403,-6.1487,-6.1608,-6.171,-6.177,-6.1843,-6.1945,-6.2086,-6.2044,-6.21,-6.2097,-6.2182,-6.2354,-6.2124,-6.2126,-6.2166,-6.2564,-6.26,-6.2633,-6.2334,-6.2339,-6.2343,-6.2558,0,-6.1334,-6.1549,-6.1556,-6.1752,-6.1854,-6.1821,-6.1926,-6.199,-6.2015,-6.2105,-6.2131,-6.2233,-6.2168,-6.2202,-6.2284,-6.2316,-6.2434,-6.23,-6.2428,-6.2433,-6.2412,-6.267,-6.2708,-6.2908,-6.2586,-6.259,-6.2594,0,-6.1601,-6.1686,-6.1894,-6.1966,-6.2009,-6.2104,-6.2199,-6.2285,-6.2356,-6.2369,-6.2433,-6.2418,-6.2542,-6.2451,-6.2621,-6.253,-6.2582,-6.2606,-6.2614,-6.2626,-6.2524,-6.2691,-6.2972,-6.3002,-6.2638,-6.2634,-6.2631,0,-6.1766,-6.1931,-6.2077,-6.2118,-6.2206,-6.2274,-6.2314,-6.238,-6.2441,-6.2523,-6.2563,-6.2658,-6.271,-6.2783,-6.2794,-6.2727,-6.2966,-6.2875,-6.2979,-6.298,-6.3032,-6.3029,-6.3326,-6.3064,-6.3064,-6.3063,-6.3062,0,-6.1994,-6.2123,-6.2152,-6.2242,-6.2385,-6.2391,-6.2532,-6.2565,-6.2625,-6.272,-6.2696,-6.2786,-6.2795,-6.2887,-6.2896,-6.3037,-6.306,-6.3073,-6.3074,-6.3076,-6.3075,-6.3111,-6.3098,-6.3071,-6.3069,-6.3068,-6.3066,0,-6.2202,-6.2227,-6.2384,-6.2455,-6.2476,-6.2578,-6.2639,-6.2724,-6.2748,-6.2869,-6.2897,-6.2934,-6.3041,-6.306,-6.3185,-6.3192,-6.336,-6.3346,-6.3337,-6.3336,-6.344,-6.343,-6.3772,-6.3817,-6.3525,-6.3527,-6.353,0,-6.2346,-6.2445,-6.2528,-6.2591,-6.2635,-6.2736,-6.28,-6.2809,-6.2875,-6.2965,-6.304,-6.3146,-6.3231,-6.3404,-6.3441,-6.3537,-6.3526,-6.3639,-6.354,-6.354,-6.353,-6.3524,-6.3535,-6.3659,-6.3662,-6.3664,-6.3666,0,-6.2601,-6.2609,-6.2702,-6.2801,-6.2878,-6.2955,-6.3028,-6.3081,-6.3099,-6.3176,-6.3287,-6.3353,-6.3483,-6.3588,-6.3684,-6.3723,-6.3699,-6.3697,-6.3727,-6.373,-6.3722,-6.3729,-6.339,-6.369,-6.3687,-6.3686,-6.3684,-6.3683,-6.2783,-6.287,-6.2942,-6.3047,-6.3104,-6.3173,-6.3258,-6.3293,-6.3386,-6.3494,-6.3493,-6.3615,-6.3685,-6.3812,-6.3858,-6.3953,-6.3916,-6.3958,-6.3969,-6.398,-6.3991,-6.3706,-6.397,-6.3969,-6.3969,-6.3968,-6.3968,0,-6.3038,-6.3083,-6.318,-6.3284,-6.3367,-6.3338,-6.3418,-6.3489,-6.3597,-6.3665,-6.375,-6.3878,-6.398,-6.4026,-6.4127,-6.4194,-6.4185,-6.422,-6.4216,-6.4225,-6.4017,-6.3982,-6.4226,-6.4225,-6.4225,-6.4225,-6.4225,-6.4225,-6.318,-6.3326,-6.3343,-6.3517,-6.3561,-6.3682,-6.373,-6.3794,-6.3848,-6.3993,-6.4079,-6.4109,-6.4168,-6.4273,-6.4366,-6.4376,-6.4415,-6.4455,-6.4461,-6.4266,-6.424,-6.4215,-6.4182,-6.4463,-6.4464,-6.4661,-6.4663,-6.4665]}]]